When you browse on this site, cookies collect data to enhance your experience and personalize the content and advertising you see.
Visit our Privacy Policy to learn more. By continuing to use the site, you agree to this use of cookies and data.
  • In Österreich
  • Länderverzeichnis
  • Für 7 Tage
  • Wassertemperatur
  • Wetterkarte
  • News
  • Widgets
  • user-avatar
    Anmelden

    Stündliche Wetter Zatyshne

    Heute, 14 Oktober, Montag

    Zeit Temperatur Niederschläge Wind Luftdruck Luftfeuchtigkeit
    00:00 +12°C° 0 mm 3 m/S 751 mmHg 69%
    01:00 +12°C° 0 mm 3 m/S 751 mmHg 73%
    02:00 +12°C° 0 mm 2 m/S 751 mmHg 79%
    03:00 +12°C° 0 mm 2 m/S 751 mmHg 80%
    04:00 +12°C° 0 mm 2 m/S 751 mmHg 82%
    05:00 +12°C° 0 mm 2 m/S 751 mmHg 84%
    06:00 +13°C° 0 mm 1 m/S 751 mmHg 78%
    07:00 +14°C° 0 mm 1 m/S 752 mmHg 72%
    08:00 +16°C° 0 mm 1 m/S 752 mmHg 64%
    09:00 +17°C° 0 mm 2 m/S 752 mmHg 57%
    10:00 +19°C° 0 mm 2 m/S 752 mmHg 49%
    11:00 +21°C° 0 mm 2 m/S 752 mmHg 41%
    12:00 +21°C° 0 mm 2 m/S 752 mmHg 38%
    13:00 +23°C° 0 mm 2 m/S 751 mmHg 34%
    14:00 +23°C° 0 mm 2 m/S 751 mmHg 33%
    15:00 +20°C° 0 mm 2 m/S 751 mmHg 37%
    16:00 +19°C° 0 mm 2 m/S 751 mmHg 41%
    17:00 +18°C° 0 mm 1 m/S 750 mmHg 45%
    18:00 +16°C° 0 mm 1 m/S 750 mmHg 48%
    19:00 +16°C° 0 mm 1 m/S 750 mmHg 51%
    20:00 +15°C° 0 mm 1 m/S 750 mmHg 54%
    21:00 +14°C° 0 mm 1 m/S 750 mmHg 54%
    22:00 +14°C° 0 mm 1 m/S 750 mmHg 55%
    23:00 +14°C° 0 mm 1 m/S 750 mmHg 55%

    Morgen, 15 Oktober, Dienstag

    Zeit Temperatur Niederschläge Wind Luftdruck Luftfeuchtigkeit
    00:00 +14°C° 0 mm 1 m/S 749 mmHg 55%
    01:00 +13°C° 0 mm 1 m/S 749 mmHg 55%
    02:00 +13°C° 0 mm 1 m/S 749 mmHg 54%
    03:00 +13°C° 0 mm 1 m/S 749 mmHg 55%
    04:00 +12°C° 0 mm 1 m/S 749 mmHg 55%
    05:00 +12°C° 0 mm 1 m/S 748 mmHg 56%
    06:00 +13°C° 0 mm 1 m/S 749 mmHg 53%
    07:00 +14°C° 0 mm 1 m/S 749 mmHg 51%
    08:00 +16°C° 0 mm 1 m/S 749 mmHg 48%
    09:00 +18°C° 0 mm 1 m/S 749 mmHg 44%
    10:00 +20°C° 0 mm 1 m/S 749 mmHg 40%
    11:00 +22°C° 0 mm 1 m/S 749 mmHg 36%
    12:00 +22°C° 0 mm 1 m/S 749 mmHg 35%
    13:00 +23°C° 0 mm 1 m/S 749 mmHg 33%
    14:00 +23°C° 0 mm 1 m/S 749 mmHg 31%
    15:00 +22°C° 0 mm 1 m/S 748 mmHg 35%
    16:00 +20°C° 0 mm 1 m/S 748 mmHg 39%
    17:00 +19°C° 0 mm 1 m/S 748 mmHg 43%
    18:00 +18°C° 0 mm 1 m/S 748 mmHg 45%
    19:00 +16°C° 0 mm 1 m/S 748 mmHg 47%
    20:00 +16°C° 0 mm 2 m/S 748 mmHg 48%
    21:00 +15°C° 0 mm 2 m/S 748 mmHg 51%
    22:00 +15°C° 0 mm 2 m/S 748 mmHg 53%
    23:00 +15°C° 0 mm 2 m/S 748 mmHg 55%

    übermorgen, 16 Oktober, Mittwoch

    Zeit Temperatur Niederschläge Wind Luftdruck Luftfeuchtigkeit
    00:00 +14°C° 0 mm 2 m/S 748 mmHg 59%
    01:00 +14°C° 0 mm 2 m/S 748 mmHg 63%
    02:00 +14°C° 0 mm 2 m/S 749 mmHg 66%
    03:00 +13°C° 0 mm 2 m/S 748 mmHg 69%
    04:00 +13°C° 0 mm 2 m/S 748 mmHg 71%
    05:00 +13°C° 0 mm 2 m/S 748 mmHg 73%
    06:00 +14°C° 0 mm 2 m/S 748 mmHg 70%
    07:00 +15°C° 0 mm 2 m/S 749 mmHg 66%
    08:00 +17°C° 0 mm 3 m/S 749 mmHg 62%
    09:00 +18°C° 0 mm 3 m/S 749 mmHg 56%
    10:00 +20°C° 0 mm 3 m/S 749 mmHg 49%
    11:00 +22°C° 0 mm 3 m/S 749 mmHg 42%
    12:00 +22°C° 0 mm 4 m/S 749 mmHg 42%
    13:00 +23°C° 0 mm 4 m/S 749 mmHg 41%
    14:00 +23°C° 0 mm 4 m/S 748 mmHg 40%
    15:00 +21°C° 0 mm 3 m/S 748 mmHg 46%
    16:00 +20°C° 0 mm 3 m/S 748 mmHg 51%
    17:00 +18°C° 0 mm 3 m/S 748 mmHg 57%
    18:00 +18°C° 0 mm 3 m/S 748 mmHg 62%
    19:00 +17°C° 0 mm 3 m/S 748 mmHg 68%
    20:00 +15°C° 0 mm 4 m/S 749 mmHg 73%
    21:00 +15°C° 0 mm 4 m/S 748 mmHg 76%
    22:00 +14°C° 0 mm 4 m/S 748 mmHg 80%
    23:00 +13°C° 0 mm 4 m/S 748 mmHg 84%

    17 Oktober, Donnerstag

    Zeit Temperatur Niederschläge Wind Luftdruck Luftfeuchtigkeit
    00:00 +13°C° 0 mm 4 m/S 748 mmHg 85%
    01:00 +13°C° 0 mm 4 m/S 748 mmHg 86%
    02:00 +12°C° 0 mm 4 m/S 748 mmHg 87%
    03:00 +12°C° 0 mm 4 m/S 748 mmHg 88%
    04:00 +11°C° 0 mm 4 m/S 748 mmHg 89%
    05:00 +11°C° 0 mm 4 m/S 748 mmHg 90%
    06:00 +12°C° 0 mm 4 m/S 748 mmHg 84%
    07:00 +13°C° 0 mm 4 m/S 748 mmHg 78%
    08:00 +14°C° 0 mm 4 m/S 748 mmHg 72%
    09:00 +17°C° 0 mm 4 m/S 748 mmHg 63%
    10:00 +19°C° 0 mm 4 m/S 748 mmHg 54%
    11:00 +21°C° 0 mm 4 m/S 748 mmHg 45%
    12:00 +22°C° 0 mm 4 m/S 748 mmHg 42%
    13:00 +22°C° 0 mm 4 m/S 748 mmHg 40%
    14:00 +24°C° 0 mm 3 m/S 747 mmHg 37%
    15:00 +21°C° 0 mm 3 m/S 747 mmHg 41%
    16:00 +20°C° 0 mm 3 m/S 747 mmHg 46%
    17:00 +18°C° 0 mm 2 m/S 747 mmHg 51%
    18:00 +17°C° 0 mm 2 m/S 747 mmHg 54%
    19:00 +16°C° 0 mm 3 m/S 747 mmHg 57%
    20:00 +16°C° 0 mm 3 m/S 747 mmHg 60%
    21:00 +15°C° 0 mm 2 m/S 747 mmHg 63%
    22:00 +15°C° 0 mm 2 m/S 747 mmHg 66%
    23:00 +14°C° 0 mm 2 m/S 747 mmHg 68%

    18 Oktober, Freitag

    Zeit Temperatur Niederschläge Wind Luftdruck Luftfeuchtigkeit
    00:00 +14°C° 0 mm 2 m/S 746 mmHg 70%
    01:00 +14°C° 0 mm 2 m/S 746 mmHg 72%
    02:00 +13°C° 0 mm 1 m/S 746 mmHg 73%
    03:00 +13°C° 0 mm 1 m/S 746 mmHg 74%
    04:00 +13°C° 0 mm 1 m/S 746 mmHg 75%
    05:00 +12°C° 0 mm 2 m/S 746 mmHg 77%
    06:00 +14°C° 0 mm 2 m/S 746 mmHg 72%
    07:00 +15°C° 0 mm 2 m/S 746 mmHg 67%
    08:00 +16°C° 0 mm 2 m/S 746 mmHg 62%
    09:00 +18°C° 0 mm 2 m/S 747 mmHg 55%
    10:00 +20°C° 0 mm 2 m/S 747 mmHg 48%
    11:00 +21°C° 0 mm 2 m/S 747 mmHg 41%
    12:00 +23°C° 0 mm 2 m/S 747 mmHg 38%
    13:00 +24°C° 0 mm 2 m/S 747 mmHg 35%
    14:00 +24°C° 0 mm 3 m/S 746 mmHg 33%
    15:00 +22°C° 0 mm 3 m/S 746 mmHg 37%
    16:00 +20°C° 0 mm 2 m/S 746 mmHg 41%
    17:00 +19°C° 0 mm 2 m/S 746 mmHg 45%
    18:00 +18°C° 0 mm 2 m/S 746 mmHg 47%
    19:00 +17°C° 0 mm 2 m/S 747 mmHg 50%
    20:00 +16°C° 0 mm 2 m/S 747 mmHg 52%
    21:00 +16°C° 0 mm 2 m/S 747 mmHg 56%
    22:00 +15°C° 0 mm 2 m/S 747 mmHg 60%
    23:00 +13°C° 0 mm 3 m/S 747 mmHg 64%

    19 Oktober, Samstag

    Zeit Temperatur Niederschläge Wind Luftdruck Luftfeuchtigkeit
    00:00 +14°C° 0 mm 2 m/S 747 mmHg 68%
    01:00 +14°C° 0 mm 2 m/S 747 mmHg 72%
    02:00 +13°C° 0 mm 2 m/S 747 mmHg 76%
    03:00 +13°C° 0 mm 2 m/S 748 mmHg 78%
    04:00 +12°C° 0 mm 2 m/S 748 mmHg 80%
    05:00 +12°C° 0 mm 2 m/S 748 mmHg 83%
    06:00 +13°C° 0 mm 2 m/S 748 mmHg 78%
    07:00 +14°C° 0 mm 2 m/S 749 mmHg 74%
    08:00 +14°C° 0 mm 3 m/S 749 mmHg 69%
    09:00 +17°C° 0 mm 3 m/S 749 mmHg 63%
    10:00 +18°C° 0 mm 3 m/S 749 mmHg 56%
    11:00 +20°C° 0 mm 3 m/S 749 mmHg 50%
    12:00 +20°C° 0 mm 2 m/S 749 mmHg 48%
    13:00 +21°C° 0 mm 2 m/S 749 mmHg 45%
    14:00 +21°C° 0 mm 2 m/S 749 mmHg 43%
    15:00 +20°C° 0 mm 2 m/S 749 mmHg 47%
    16:00 +18°C° 0 mm 3 m/S 749 mmHg 52%
    17:00 +17°C° 0 mm 3 m/S 749 mmHg 56%
    18:00 +16°C° 0 mm 3 m/S 749 mmHg 60%
    19:00 +16°C° 0 mm 3 m/S 749 mmHg 64%
    20:00 +14°C° 0 mm 4 m/S 750 mmHg 68%
    21:00 +13°C° 0 mm 4 m/S 750 mmHg 71%
    22:00 +13°C° 0 mm 4 m/S 750 mmHg 73%
    23:00 +12°C° 0 mm 4 m/S 750 mmHg 76%
    Mehr zeigen